Weather in Lake Elsinore

United States     33°37′41″N   117°22′12″W
temp.,
°C
wind,
m/s
gust,
m/s
humid.,
%
clouds,
%
prec.,
mm/h
press.,
hPa
HPBL,
m
16 may, sun
sun1623:00+12ssw337786 0.0 1014534
02:00+12s227799 0.0 1014462
05:00+12sse3380100 0.1 1014429
08:00+12sse3380100 0.1 1015515
11:00+14s3371100 0.2 1015963
14:00+14ssw3373100 0.2 1015802
17:00+14wsw3374100 0.4 1014670
20:00+13ssw227766 0.1 1014263
17 may, mon
mon1723:00+11ssw228793 0.1 1016189
02:00+11ssw2287100 0.0 1016263
05:00+11s1286100 0.0 1016231
08:00+12s117966 0.0 1016464
11:00+18wsw11531 0.0 10151002
14:00+24wnw23380 0.0 10131475
17:00+22wnw22440 0.0 10121241
20:00+15ssw33734 0.0 101470
18 may, tue
tue1823:00+11s229526 0.0 101627
02:00+11sse229379 0.0 1015103
05:00+12se2283100 0.0 1014368
08:00+14sse107515 0.0 1014457
11:00+22nw22420 0.0 1012793
14:00+28nw33280 0.0 10101201
17:00+27s12340 0.0 1009874
20:00+17s23640 0.0 101137
19 may, wed
wed1923:00+14s22820 0.0 101210
02:00+12se11860 0.0 101110
05:00+11sw118853 0.0 101111
08:00+17ne00650 0.0 1012355
11:00+24ssw02351 0.0 10101170
14:00+28w45240 0.0 10081699
17:00+25ssw33302 0.0 10071171
20:00+16s34690 0.0 100970
20 may, thu
thu2023:00+12sse339523 0.0 101266
02:00+10sse359765 0.0 1012186
05:00+10sse468969 0.0 1012341
08:00+12sse557328 0.0 1012552
11:00+19s66420 0.0 10111114
14:00+22s75320 0.0 10081368
17:00+20ssw55370 0.0 10071165
20:00+12s467715 0.0 1010136